Wind_Speed
14 14 13 13 12 12 11 10 10 10 11 13 14 15 16 17 20 21 22 23 24 25 27 28 29 30 30 30 30 31 31 30 30 30 30 30 30 29 29 28 27 25 25 24
14 14 13 13 12 12 11 10 10 12 14 15 16 17 18 19 21 22 23 23 22 23 24 26 28 29 30 30 31 31 32 32 31 31 31 32 32 31 30 29 28 28 27 26
13 14 14 13 12 12 11 11 11 11 13 16 17 19 20 20 21 22 23 23 22 23 23 25 26 28 29 30 31 31 32 31 31 32 33 33 33 32 30 30 29 28 27 27
15 15 14 12 12 11 12 12 13 13 14 15 17 19 20 21 21 21 21 22 22 23 24 24 25 26 28 29 30 31 32 33 32 32 33 33 33 33 32 31 30 29 28 27
16 15 13 12 12 12 13 13 13 13 15 17 18 19 20 20 20 20 20 21 21 22 23 23 23 24 26 28 29 30 32 32 32 32 33 34 34 33 32 32 32 31 29 29
16 15 13 12 13 13 13 13 13 13 15 16 16 19 19 18 18 19 20 20 20 21 23 24 24 24 25 27 28 29 30 31 32 32 33 33 33 33 33 33 32 32 31 31
15 13 12 11 11 11 12 12 13 14 13 13 15 17 16 17 18 19 18 20 21 22 22 23 24 24 25 26 27 28 29 29 30 31 32 32 32 33 33 32 31 31 31 31
13 12 11 11 10 10 11 13 13 13 12 12 12 13 14 15 16 18 18 19 20 21 22 21 22 23 24 25 26 26 27 28 29 30 31 32 32 31 31 31 31 31 31 31
12 10 10 10 10 10 10 11 12 13 13 13 13 14 15 16 16 17 19 19 19 20 20 20 21 22 24 25 25 26 28 28 29 30 31 31 31 31 32 32 32 32 32 31
12 11 10 11 11 10 10 11 12 12 12 13 14 15 16 16 16 16 17 18 18 19 19 20 22 23 24 25 25 26 27 29 30 30 30 30 31 31 31 32 31 31 31 31
12 12 11 12 12 11 11 12 12 12 13 14 16 17 17 18 17 17 17 17 18 19 20 21 23 23 23 24 26 27 28 28 29 29 29 30 31 31 31 31 30 30 31 31
12 12 12 12 12 12 12 12 12 13 14 15 16 18 18 18 19 19 18 19 20 22 22 22 23 24 25 26 27 27 27 28 28 28 29 30 30 30 29 29 30 30 30 30
12 12 12 12 12 12 12 12 12 13 14 15 17 18 19 19 19 19 19 20 21 23 24 25 26 26 26 27 27 27 27 27 28 27 28 28 29 29 29 29 29 29 28 28
12 12 12 11 12 12 13 12 12 14 16 17 18 19 20 20 20 21 21 23 24 26 26 27 27 27 27 27 27 27 26 26 26 26 26 26 26 26 26 26 27 26 26 26
13 13 12 12 11 11 12 13 13 15 17 18 18 19 20 21 22 23 24 25 26 27 27 28 28 27 27 26 26 26 26 25 25 25 24 24 24 24 24 24 24 24 23 23
13 13 12 12 12 13 13 12 13 15 16 17 18 19 20 21 22 24 25 26 27 28 28 28 27 26 26 25 24 24 23 23 22 21 21 21 21 20 20 21 21 21 20 20
13 12 12 12 12 13 13 12 13 14 15 17 19 20 21 23 24 24 25 27 27 28 27 26 24 23 23 22 21 21 20 20 19 18 17 17 17 17 17 18 18 18 17 17
14 13 12 11 11 10 11 11 13 15 16 17 19 20 22 23 24 25 26 26 26 26 25 23 22 21 21 20 19 18 18 17 16 16 15 15 15 15 15 15 15 15 15 15
14 13 12 11 10 9 10 11 13 14 15 17 18 20 22 23 24 25 25 25 25 24 22 21 20 19 18 17 16 15 15 15 14 13 12 12 12 12 11 11 12 12 13 13
13 12 12 10 9 9 9 11 12 14 15 17 19 20 21 23 24 24 24 23 22 21 20 18 18 17 15 14 13 13 12 12 11 11 10 10 9 8 8 8 9 10 11 11
13 11 11 10 9 9 9 11 13 15 17 19 19 21 22 22 23 23 22 21 20 18 17 16 15 14 12 11 11 10 10 9 8 8 8 8 7 6 6 6 7 7 7 8
12 11 10 9 9 8 9 11 13 15 17 19 20 21 21 22 22 22 21 19 18 16 15 13 12 11 10 9 9 8 7 7 6 6 5 5 5 5 5 4 4 5 5 6
12 11 11 10 8 8 9 11 13 15 17 19 20 20 21 21 21 21 19 18 16 14 12 11 10 8 8 7 6 5 5 4 5 4 3 4 4 4 4 4 3 3 3 3
12 12 10 10 8 7 8 10 13 15 17 19 19 19 20 20 20 19 17 16 14 12 10 9 8 7 5 4 4 3 2 2 2 3 2 2 2 2 2 2 2 2 2 3
11 10 8 7 7 6 7 10 13 15 17 18 19 19 19 19 18 17 15 14 12 10 9 8 7 6 4 3 3 3 3 3 3 3 2 1 1 1 1 2 2 2 2 3
10 8 6 5 6 6 8 10 12 15 17 18 19 19 18 18 17 15 14 12 10 9 8 8 7 7 5 5 4 4 4 5 5 5 5 4 4 4 4 3 3 2 2 2
Wind_Direction
201 199 198 194 191 195 201 202 210 225 242 252 258 266 269 270 268 268 268 268 270 269 268 268 267 268 269 270 271 270 271 269 268 268 268 268 270 270 270 273 272 269 268 267
198 193 191 190 194 201 206 214 222 231 240 248 255 262 270 275 270 270 272 272 272 275 274 273 271 270 270 270 270 270 270 270 270 269 268 269 270 270 268 271 275 272 268 268
192 194 196 194 199 208 215 224 233 242 244 247 256 264 270 273 272 272 273 275 273 277 279 277 274 272 271 271 272 271 271 270 270 268 270 270 270 271 272 272 274 272 270 270
193 198 198 199 206 217 224 231 238 240 248 256 262 266 272 273 274 274 273 279 278 277 279 280 279 276 274 273 274 273 271 272 270 269 270 272 271 271 271 270 271 271 272 273
199 201 204 212 219 228 234 238 245 246 250 258 265 269 274 274 273 272 273 278 279 279 280 281 281 281 279 276 276 275 274 273 270 271 271 273 273 272 272 272 272 271 271 271
202 208 213 222 227 234 239 243 248 250 254 257 261 267 270 274 274 275 276 278 279 280 280 280 280 281 281 278 277 276 274 275 272 272 272 272 273 272 271 272 272 271 271 270
205 209 216 225 226 230 239 245 248 250 255 259 268 274 274 279 278 280 283 282 283 282 282 282 281 280 281 282 280 277 276 276 275 273 273 274 273 272 272 271 271 271 269 269
207 213 219 227 229 227 240 247 250 253 264 274 279 284 287 289 288 286 289 291 293 289 286 285 286 284 284 282 281 280 279 278 277 275 274 274 274 273 272 272 271 270 269 269
209 210 222 228 229 235 243 250 256 259 269 277 282 289 297 299 297 293 292 293 296 294 292 290 290 288 287 284 281 280 279 280 279 278 277 276 275 274 274 272 271 269 269 269
217 214 216 225 229 240 248 252 258 265 275 279 283 290 302 310 313 307 299 299 300 297 297 297 295 293 289 286 283 283 282 280 279 279 277 276 276 275 274 273 272 271 270 269
221 220 223 226 231 238 250 255 261 270 278 287 292 297 303 309 312 314 309 304 303 303 301 298 295 295 293 290 287 287 285 282 280 280 279 278 277 275 274 273 272 271 270 269
224 224 225 232 237 242 250 256 265 273 281 291 299 303 305 309 310 310 308 306 305 306 304 301 299 297 295 293 291 288 287 285 283 281 279 279 278 275 275 275 274 274 273 271
230 227 226 232 235 237 245 257 266 275 284 293 300 306 307 307 309 307 307 307 307 306 304 303 302 301 297 294 292 289 288 288 284 282 281 280 279 277 276 275 275 275 274 271
235 234 232 234 234 241 247 260 269 276 285 293 300 306 310 310 311 309 307 308 307 306 304 303 302 301 298 294 292 289 288 287 286 284 282 281 280 278 276 275 275 273 272 269
233 235 232 233 238 246 256 268 278 284 291 297 303 307 310 312 311 310 310 310 309 308 305 304 303 301 299 295 291 288 287 288 288 286 282 281 279 278 277 277 275 273 272 269
234 234 235 237 241 249 260 272 285 288 292 299 305 310 312 312 311 311 311 311 310 309 307 305 303 300 297 294 292 290 291 290 289 286 283 281 279 279 278 276 275 273 274 271
232 239 244 248 249 253 263 276 288 296 298 304 309 312 311 311 311 312 313 312 311 310 308 305 303 300 297 296 295 294 292 291 288 285 284 283 281 278 277 274 274 274 274 268
237 244 244 248 249 257 276 285 296 301 307 309 312 314 313 314 315 315 315 314 313 312 309 307 305 303 301 301 298 295 293 290 288 286 285 285 283 280 278 273 271 269 268 269
234 239 245 247 253 269 285 298 305 308 313 317 318 318 318 319 319 319 317 316 314 314 311 309 308 305 303 301 297 294 292 289 288 287 285 284 285 282 279 275 272 269 266 266
229 235 244 245 258 274 291 301 310 315 319 322 321 321 321 321 321 322 319 317 316 316 315 312 310 309 306 303 300 298 294 290 285 283 283 286 286 282 278 277 272 270 268 265
225 231 238 247 261 277 294 308 316 321 323 324 323 324 325 325 325 325 324 322 320 319 316 314 314 311 308 305 303 303 299 293 287 284 286 288 285 281 278 274 272 273 272 271
223 232 239 246 260 280 301 313 320 325 326 325 327 329 329 329 329 329 329 327 325 323 320 317 318 316 312 309 308 306 303 299 295 288 286 288 288 284 280 279 284 284 284 280
222 232 238 243 258 285 303 312 321 326 328 329 330 332 333 333 333 333 333 332 331 329 328 327 325 322 318 317 318 314 309 308 308 301 296 289 283 277 271 274 282 288 293 290
223 230 241 250 258 286 304 317 327 332 334 335 336 337 337 338 338 338 338 338 338 339 339 340 339 338 337 337 344 345 333 324 324 324 311 286 281 280 273 284 287 293 307 313
225 234 243 248 265 291 315 329 334 336 338 340 341 341 342 343 344 345 346 346 347 351 357 1 3 4 3 358 3 12 27 24 21 18 19 10 13 13 356 340 336 321 324 322
226 231 231 256 278 301 324 333 337 341 343 345 346 347 347 349 350 352 354 356 -0 6 12 17 22 29 32 36 38 41 44 46 52 56 56 56 63 58 52 48 43 42 34 6
Height
5813 5817 5819 5821 5823 5825 5826 5827 5828 5829 5830 5831 5831 5832 5833 5833 5833 5833 5833 5832 5833 5833 5832 5832 5831 5831 5831 5830 5830 5830 5829 5828 5829 5829 5829 5829 5829 5829 5830 5830 5830 5830 5830 5830
5813 5815 5817 5818 5820 5821 5823 5824 5825 5826 5827 5828 5828 5828 5828 5828 5828 5828 5827 5827 5827 5827 5826 5825 5825 5825 5824 5824 5823 5823 5823 5822 5822 5823 5822 5822 5823 5822 5823 5823 5823 5823 5823 5824
5810 5813 5814 5815 5817 5819 5820 5822 5823 5823 5824 5824 5825 5825 5825 5825 5824 5823 5822 5822 5821 5821 5820 5819 5818 5818 5818 5817 5816 5816 5815 5814 5815 5815 5814 5815 5816 5815 5815 5816 5816 5816 5817 5817
5807 5809 5811 5813 5815 5816 5818 5819 5820 5820 5821 5821 5821 5821 5821 5820 5819 5818 5817 5817 5816 5815 5814 5813 5812 5811 5810 5810 5809 5808 5808 5808 5808 5808 5808 5808 5808 5808 5808 5809 5809 5809 5810 5810
5805 5807 5809 5810 5812 5814 5815 5816 5817 5817 5817 5818 5817 5817 5817 5814 5813 5812 5812 5811 5810 5810 5809 5808 5806 5805 5804 5803 5802 5802 5801 5800 5799 5800 5800 5799 5800 5801 5801 5801 5801 5801 5802 5803
5803 5804 5806 5808 5809 5811 5812 5813 5813 5814 5814 5814 5814 5812 5811 5810 5808 5807 5806 5805 5805 5804 5803 5802 5800 5799 5798 5797 5796 5795 5794 5793 5792 5793 5792 5792 5792 5793 5793 5793 5793 5793 5794 5794
5801 5803 5804 5805 5806 5808 5809 5810 5811 5811 5811 5811 5810 5808 5807 5806 5804 5803 5802 5801 5799 5798 5797 5796 5794 5793 5792 5790 5789 5789 5788 5786 5785 5785 5785 5784 5784 5785 5784 5785 5785 5785 5786 5786
5799 5801 5802 5803 5804 5805 5806 5807 5808 5808 5807 5807 5806 5804 5803 5801 5799 5799 5797 5796 5794 5793 5792 5790 5789 5787 5785 5784 5783 5782 5781 5779 5778 5778 5777 5776 5776 5776 5776 5777 5777 5776 5777 5777
5796 5798 5799 5800 5801 5802 5803 5803 5804 5804 5804 5803 5802 5801 5799 5797 5796 5794 5792 5791 5790 5788 5787 5785 5783 5781 5780 5778 5776 5775 5774 5772 5771 5770 5769 5769 5768 5768 5768 5768 5768 5768 5768 5768
5793 5795 5797 5798 5799 5800 5801 5801 5801 5801 5800 5799 5798 5797 5796 5794 5792 5790 5788 5787 5786 5785 5783 5780 5778 5776 5774 5771 5769 5768 5766 5765 5764 5763 5762 5761 5760 5759 5759 5759 5759 5759 5759 5759
5791 5793 5795 5796 5797 5797 5798 5799 5798 5798 5797 5796 5795 5796 5793 5790 5789 5786 5784 5783 5781 5779 5777 5775 5772 5770 5767 5765 5763 5761 5759 5757 5756 5755 5753 5752 5752 5751 5751 5751 5750 5750 5750 5750
5788 5790 5792 5793 5794 5794 5795 5795 5795 5795 5794 5793 5791 5793 5788 5786 5784 5782 5780 5778 5776 5774 5771 5769 5766 5763 5760 5758 5756 5753 5751 5749 5747 5746 5745 5744 5743 5742 5742 5742 5742 5742 5741 5741
5786 5788 5789 5791 5793 5793 5792 5792 5792 5792 5791 5789 5788 5789 5784 5781 5779 5776 5774 5772 5770 5767 5765 5762 5759 5756 5753 5750 5748 5746 5743 5741 5739 5738 5737 5735 5735 5734 5734 5733 5733 5733 5733 5732
5784 5785 5787 5789 5789 5789 5789 5790 5789 5789 5788 5786 5784 5782 5780 5776 5774 5771 5768 5766 5763 5760 5757 5754 5751 5748 5745 5742 5740 5737 5735 5733 5731 5730 5728 5727 5726 5726 5725 5725 5725 5725 5725 5724
5781 5782 5784 5785 5786 5786 5786 5786 5786 5785 5783 5782 5780 5778 5775 5772 5769 5766 5763 5760 5756 5753 5750 5746 5743 5740 5737 5734 5732 5729 5727 5725 5723 5721 5720 5719 5718 5718 5717 5717 5717 5717 5717 5717
5779 5780 5781 5783 5784 5784 5783 5783 5782 5781 5779 5778 5775 5773 5770 5767 5764 5760 5757 5753 5750 5746 5743 5739 5735 5732 5729 5726 5724 5722 5719 5717 5716 5714 5713 5712 5712 5711 5710 5710 5710 5710 5710 5710
5777 5778 5779 5781 5781 5781 5781 5781 5780 5778 5776 5774 5771 5770 5765 5762 5758 5755 5751 5747 5743 5739 5735 5731 5728 5725 5722 5719 5717 5715 5713 5711 5710 5708 5707 5706 5706 5705 5705 5704 5704 5704 5704 5704
5775 5776 5777 5778 5779 5778 5780 5777 5776 5774 5772 5770 5767 5764 5761 5757 5753 5749 5744 5740 5736 5732 5728 5725 5722 5718 5716 5713 5711 5709 5707 5706 5704 5703 5702 5701 5701 5700 5699 5699 5699 5699 5699 5699
5772 5774 5774 5775 5775 5776 5776 5774 5772 5771 5769 5766 5763 5760 5756 5751 5747 5742 5738 5734 5730 5726 5722 5719 5716 5713 5710 5708 5706 5705 5703 5701 5700 5699 5698 5698 5697 5696 5695 5695 5695 5695 5695 5695
5770 5771 5773 5773 5773 5773 5774 5772 5769 5768 5766 5763 5759 5755 5751 5747 5742 5738 5733 5729 5725 5721 5717 5714 5711 5708 5706 5704 5702 5701 5699 5697 5696 5695 5695 5694 5693 5693 5692 5692 5692 5691 5691 5691
5768 5769 5770 5770 5770 5770 5771 5769 5767 5766 5764 5759 5755 5751 5747 5742 5738 5733 5728 5724 5720 5716 5713 5710 5707 5704 5702 5700 5699 5697 5696 5695 5693 5692 5692 5691 5691 5690 5690 5689 5689 5689 5688 5688
5765 5766 5767 5768 5768 5770 5768 5766 5765 5763 5759 5755 5751 5746 5742 5738 5733 5728 5724 5719 5715 5712 5709 5706 5703 5701 5699 5698 5696 5695 5694 5692 5691 5691 5690 5689 5689 5688 5688 5688 5687 5687 5687 5686
5762 5764 5764 5766 5767 5766 5765 5763 5762 5759 5755 5751 5747 5743 5738 5734 5729 5724 5720 5716 5712 5709 5706 5703 5701 5699 5697 5695 5694 5693 5692 5691 5690 5689 5688 5688 5688 5687 5687 5686 5686 5686 5685 5685
5760 5760 5762 5762 5763 5763 5762 5761 5758 5755 5752 5748 5744 5739 5735 5730 5726 5721 5717 5713 5709 5706 5704 5701 5699 5697 5695 5694 5693 5692 5691 5690 5689 5688 5688 5687 5687 5686 5686 5685 5685 5684 5684 5684
5757 5758 5759 5760 5761 5761 5760 5758 5756 5753 5749 5745 5741 5736 5732 5727 5723 5719 5715 5711 5708 5705 5702 5700 5698 5696 5695 5694 5693 5692 5691 5690 5689 5688 5687 5687 5686 5686 5685 5684 5684 5683 5683 5683
5755 5757 5758 5759 5759 5759 5758 5756 5753 5750 5747 5743 5739 5734 5730 5725 5721 5717 5713 5710 5707 5704 5702 5700 5698 5696 5695 5694 5693 5692 5691 5690 5689 5689 5688 5687 5686 5686 5685 5684 5684 5683 5683 5683